,,PA_Meas_PMT16A,,PR_Meas_QMR101_102,,RH_Meas_QMH101,,SR_Meas_QMS101,,TA_Meas_QMH101,,GenWind,,GenWind,
time,status,PA,status,PR,status,RH,status,SR,status,TA,status,DirAvg,status,SpdAvg,
2016-01-04, 07:48:04,VALID,920.507,VALID,0,VALID,101.696,VALID,93.3664,VALID,21.7103,VALID,172,VALID,1.28906,
2016-01-04, 07:49:04,VALID,920.503,VALID,0,VALID,101.521,VALID,143.971,VALID,21.7493,VALID,199,VALID,0.376953,
2016-01-04, 07:50:04,VALID,920.494,VALID,0,VALID,101.529,VALID,172.336,VALID,21.829,VALID,175,VALID,0,
2016-01-04, 07:51:04,VALID,920.531,VALID,0,VALID,101.026,VALID,121.086,VALID,21.8876,VALID,169,VALID,1.3043,
2016-01-04, 07:52:04,VALID,920.567,VALID,0,VALID,100.66,VALID,121.516,VALID,21.9851,VALID,198,VALID,0,
2016-01-04, 07:53:04,VALID,920.545,VALID,0,VALID,100.408,VALID,175.881,VALID,22.0632,VALID,195,VALID,0.228516,
2016-01-04, 07:54:04,VALID,920.559,VALID,0,VALID,99.7524,VALID,162.021,VALID,22.1413,VALID,187,VALID,1.17891,
2016-01-04, 07:55:04,VALID,920.578,VALID,0,VALID,99.4856,VALID,275.801,VALID,22.2583,VALID,189,VALID,1.01328,
2016-01-04, 07:56:04,VALID,920.573,VALID,0,VALID,98.8986,VALID,288.372,VALID,22.4145,VALID,184,VALID,1.57148,
2016-01-04, 07:57:04,VALID,920.587,VALID,0,VALID,95.6891,VALID,187.915,VALID,22.5494,VALID,168,VALID,1.28672,
2016-01-04, 07:58:04,VALID,920.579,VALID,0,VALID,88.9881,VALID,273.653,VALID,22.7055,VALID,197,VALID,0.144922,
2016-01-04, 07:59:04,VALID,920.621,VALID,0,VALID,89.2016,VALID,159.658,VALID,22.9024,VALID,168,VALID,0,
2016-01-04, 08:00:04,VALID,920.645,VALID,0,VALID,86.785,VALID,133.227,VALID,22.9415,VALID,189,VALID,0,
2016-01-04, 08:01:04,VALID,920.649,VALID,0,VALID,85.5424,VALID,126.243,VALID,22.9592,VALID,173,VALID,0,
2016-01-04, 08:02:04,VALID,920.694,VALID,0,VALID,86.6477,VALID,118.185,VALID,22.9397,VALID,203,VALID,0,
2016-01-04, 08:03:04,VALID,920.748,VALID,0,VALID,86.419,VALID,108.623,VALID,22.9415,VALID,192,VALID,0,
2016-01-04, 08:21:04,VALID,921.018,VALID,0,VALID,92.3119,VALID,102.177,VALID,22.3542,VALID,144,VALID,0.878516,
2016-01-04, 08:22:04,VALID,921.001,VALID,0,VALID,95.5824,VALID,107.441,VALID,22.3542,VALID,132,VALID,0.320313,
2016-01-04, 08:23:04,VALID,920.981,VALID,0,VALID,94.0577,VALID,109.912,VALID,22.3933,VALID,147,VALID,0,
2016-01-04, 08:24:04,VALID,921.011,VALID,0,VALID,92.4492,VALID,116.359,VALID,22.4128,VALID,159,VALID,0,
2016-01-04, 08:25:04,VALID,921.045,VALID,0,VALID,90.5204,VALID,123.45,VALID,22.4323,VALID,157,VALID,0.845312,
2016-01-04, 08:26:04,VALID,921.103,VALID,0,VALID,89.072,VALID,122.59,VALID,22.4128,VALID,143,VALID,1.36914,
2016-01-04, 08:27:04,VALID,921.128,VALID,0,VALID,89.5751,VALID,115.177,VALID,22.3933,VALID,144,VALID,0,
2016-01-04, 08:28:04,VALID,921.179,VALID,0,VALID,91.0236,VALID,104.863,VALID,22.4128,VALID,148,VALID,0,
2016-01-04, 08:32:04,VALID,921.278,VALID,0,VALID,94.4617,VALID,98.9533,VALID,22.647,VALID,240,VALID,0,
2016-01-04, 08:33:04,VALID,921.291,VALID,0,VALID,96.0932,VALID,102.177,VALID,22.5689,VALID,240,VALID,0,
2016-01-04, 08:34:04,VALID,921.311,VALID,0,VALID,97.2519,VALID,104.97,VALID,22.4713,VALID,278,VALID,0,
2016-01-04, 08:35:04,VALID,921.299,VALID,0,VALID,97.7551,VALID,111.524,VALID,22.4323,VALID,277,VALID,0,
2016-01-04, 08:36:04,VALID,921.32,VALID,0,VALID,98.2963,VALID,118.615,VALID,22.3933,VALID,265,VALID,0,
2016-01-04, 08:37:04,VALID,921.318,VALID,0,VALID,98.4031,VALID,122.268,VALID,22.4128,VALID,269,VALID,0,
2016-01-04, 08:38:04,VALID,921.331,VALID,0,VALID,95.7349,VALID,120.871,VALID,22.3347,VALID,253,VALID,0.464453,
2016-01-04, 08:39:04,VALID,921.322,VALID,0,VALID,97.9533,VALID,117.218,VALID,22.2567,VALID,253,VALID,0,
2016-01-04, 08:40:04,VALID,921.348,VALID,0,VALID,98.1057,VALID,108.945,VALID,22.2176,VALID,280,VALID,0,
2016-01-04, 08:41:04,VALID,921.327,VALID,0,VALID,98.6851,VALID,100.028,VALID,22.2371,VALID,242,VALID,0,
2016-01-04, 08:42:04,VALID,921.379,VALID,0,VALID,98.8986,VALID,98.9533,VALID,22.2567,VALID,242,VALID,0,
2016-01-04, 08:43:04,VALID,921.398,VALID,0,VALID,98.3802,VALID,103.573,VALID,22.2957,VALID,260,VALID,0,
2016-01-04, 08:44:04,VALID,921.373,VALID,0,VALID,98.0829,VALID,107.871,VALID,22.2957,VALID,250,VALID,0,
2016-01-04, 08:45:04,VALID,921.382,VALID,0,VALID,98.0676,VALID,109.16,VALID,22.2762,VALID,245,VALID,0,
2016-01-04, 08:46:04,VALID,921.424,VALID,0,VALID,98.0905,VALID,115.069,VALID,22.3152,VALID,246,VALID,0,
2016-01-04, 08:47:04,VALID,921.436,VALID,0,VALID,98.83,VALID,127.64,VALID,22.3737,VALID,246,VALID,0,
2016-01-04, 08:48:04,VALID,921.478,VALID,0,VALID,98.2658,VALID,141.178,VALID,22.4128,VALID,246,VALID,0,
2016-01-04, 08:49:04,VALID,921.472,VALID,0,VALID,97.3891,VALID,150.095,VALID,22.4713,VALID,246,VALID,0,
2016-01-04, 08:50:04,VALID,921.468,VALID,0,VALID,96.0779,VALID,157.509,VALID,22.4891,VALID,246,VALID,0,
2016-01-04, 08:51:04,VALID,921.465,VALID,0,VALID,95.2317,VALID,165.674,VALID,22.5689,VALID,241,VALID,0,
2016-01-04, 08:52:04,VALID,921.457,VALID,0,VALID,95.529,VALID,170.939,VALID,22.6257,VALID,250,VALID,0,
2016-01-04, 08:53:04,VALID,921.496,VALID,0,VALID,94.3474,VALID,176.741,VALID,22.6452,VALID,219,VALID,0,
2016-01-04, 08:54:04,VALID,921.504,VALID,0,VALID,92.472,VALID,186.088,VALID,22.7055,VALID,238,VALID,0,
2016-01-04, 08:55:04,VALID,921.524,VALID,0,VALID,91.3438,VALID,201.774,VALID,22.6843,VALID,242,VALID,0,
2016-01-04, 08:56:04,VALID,921.53,VALID,0,VALID,91.8469,VALID,198.444,VALID,22.7055,VALID,253,VALID,0,
2016-01-04, 08:57:04,VALID,921.571,VALID,0,VALID,91.5725,VALID,200.593,VALID,22.7445,VALID,262,VALID,0,
2016-01-04, 08:58:04,VALID,921.59,VALID,0,VALID,95.6205,VALID,200.808,VALID,22.8226,VALID,261,VALID,0,
2016-01-04, 08:59:04,VALID,921.6,VALID,0,VALID,93.4478,VALID,199.841,VALID,22.9007,VALID,261,VALID,0,
2016-01-04, 09:00:04,VALID,921.633,VALID,0,VALID,90.9855,VALID,198.659,VALID,22.8989,VALID,250,VALID,0,
2016-01-04, 09:01:04,VALID,921.661,VALID,0,VALID,88.3859,VALID,203.279,VALID,22.8404,VALID,251,VALID,1.45508,
2016-01-04, 09:02:04,VALID,921.634,VALID,0,VALID,85.3365,VALID,208.973,VALID,22.7818,VALID,239,VALID,0,
2016-01-04, 09:03:04,VALID,921.639,VALID,0,VALID,87.9742,VALID,220.147,VALID,22.8616,VALID,239,VALID,0,
2016-01-04, 09:04:04,VALID,921.627,VALID,0,VALID,88.3325,VALID,232.503,VALID,22.8599,VALID,238,VALID,0,
2016-01-04, 09:05:04,VALID,921.609,VALID,0,VALID,89.2168,VALID,246.577,VALID,22.977,VALID,238,VALID,0,
2016-01-04, 09:06:04,VALID,921.596,VALID,0,VALID,90.2917,VALID,258.396,VALID,23.0941,VALID,259,VALID,0,
2016-01-04, 09:07:04,VALID,921.579,VALID,0,VALID,86.1903,VALID,249.693,VALID,23.1154,VALID,229,VALID,0,
2016-01-04, 09:08:04,VALID,921.579,VALID,0,VALID,85.611,VALID,235.726,VALID,23.1331,VALID,193,VALID,0,
2016-01-04, 09:09:04,VALID,921.556,VALID,0,VALID,83.4459,VALID,225.734,VALID,23.1722,VALID,164,VALID,0,
2016-01-04, 09:10:04,VALID,921.579,VALID,0,VALID,83.5221,VALID,206.932,VALID,23.2893,VALID,190,VALID,0,
2016-01-04, 09:11:04,VALID,921.561,VALID,0,VALID,82.4777,VALID,191.997,VALID,23.4277,VALID,185,VALID,0,
2016-01-04, 09:12:04,VALID,921.576,VALID,0,VALID,81.5705,VALID,191.782,VALID,23.4046,VALID,175,VALID,0,
2016-01-04, 09:13:04,VALID,921.576,VALID,0,VALID,82.2567,VALID,195.65,VALID,23.465,VALID,200,VALID,0,
2016-01-04, 09:14:04,VALID,921.594,VALID,0,VALID,82.2338,VALID,195.328,VALID,23.543,VALID,193,VALID,0,
2016-01-04, 09:15:04,VALID,921.587,VALID,0,VALID,81.8145,VALID,214.99,VALID,23.6211,VALID,187,VALID,0,
2016-01-04, 09:16:04,VALID,921.6,VALID,0,VALID,81.0522,VALID,264.305,VALID,23.6779,VALID,186,VALID,0,
2016-01-04, 09:17:04,VALID,921.622,VALID,0,VALID,81.0064,VALID,262.049,VALID,23.8181,VALID,175,VALID,0,
2016-01-04, 09:18:04,VALID,921.593,VALID,0,VALID,80.4423,VALID,241.098,VALID,23.9353,VALID,186,VALID,0,
2016-01-04, 09:19:04,VALID,921.598,VALID,0,VALID,79.497,VALID,203.279,VALID,24.0506,VALID,186,VALID,0,
2016-01-04, 09:20:04,VALID,921.573,VALID,0,VALID,79.0091,VALID,207.899,VALID,24.1482,VALID,114,VALID,0,
2016-01-04, 09:21:04,VALID,921.558,VALID,0,VALID,78.1705,VALID,255.602,VALID,24.1696,VALID,144,VALID,0,
2016-01-04, 09:22:04,VALID,921.523,VALID,0,VALID,78.4678,VALID,277.95,VALID,24.15,VALID,139,VALID,0,
2016-01-04, 09:23:04,VALID,921.506,VALID,0,VALID,79.1692,VALID,266.776,VALID,24.3044,VALID,131,VALID,0,
2016-01-04, 09:24:04,VALID,921.485,VALID,0,VALID,77.4844,VALID,253.669,VALID,24.6559,VALID,161,VALID,0,
2016-01-04, 09:25:04,VALID,921.461,VALID,0,VALID,76.0741,VALID,267.851,VALID,25.0269,VALID,175,VALID,0,
2016-01-04, 09:26:04,VALID,921.469,VALID,0,VALID,74.092,VALID,292.562,VALID,25.2436,VALID,148,VALID,0,
2016-01-04, 09:27:04,VALID,921.476,VALID,0,VALID,73.3678,VALID,301.05,VALID,25.1441,VALID,179,VALID,0.152344,
2016-01-04, 09:28:04,VALID,921.478,VALID,0,VALID,72.6207,VALID,280.851,VALID,25.1636,VALID,175,VALID,0,
2016-01-04, 09:29:04,VALID,921.449,VALID,0,VALID,72.3157,VALID,239.271,VALID,25.2417,VALID,176,VALID,0,
2016-01-04, 09:30:04,VALID,921.459,VALID,0,VALID,72.0337,VALID,206.717,VALID,25.2222,VALID,176,VALID,0,
2016-01-04, 09:31:04,VALID,921.464,VALID,0,VALID,72.2166,VALID,212.411,VALID,25.2417,VALID,167,VALID,0,
2016-01-04, 09:32:04,VALID,921.455,VALID,0,VALID,73.4287,VALID,234.329,VALID,25.0855,VALID,195,VALID,0,
2016-01-04, 09:33:04,VALID,921.488,VALID,0,VALID,72.7121,VALID,254.313,VALID,25.0659,VALID,211,VALID,0,
2016-01-04, 09:34:04,VALID,921.489,VALID,0,VALID,72.0032,VALID,268.925,VALID,25.105,VALID,198,VALID,0,
2016-01-04, 09:35:04,VALID,921.49,VALID,0,VALID,71.9193,VALID,279.025,VALID,25.0445,VALID,221,VALID,0,
2016-01-04, 09:36:04,VALID,921.469,VALID,0,VALID,73.6879,VALID,292.67,VALID,24.8883,VALID,224,VALID,0,
2016-01-04, 09:37:04,VALID,921.473,VALID,0,VALID,74.6104,VALID,308.034,VALID,24.8492,VALID,239,VALID,0,
2016-01-04, 09:38:04,VALID,921.462,VALID,0,VALID,74.7323,VALID,271.934,VALID,24.8688,VALID,201,VALID,0,
2016-01-04, 09:39:04,VALID,921.477,VALID,0,VALID,73.4059,VALID,252.916,VALID,24.8297,VALID,223,VALID,0,
2016-01-04, 09:40:04,VALID,921.468,VALID,0,VALID,74.7781,VALID,223.907,VALID,24.6716,VALID,249,VALID,0,
2016-01-04, 09:41:04,VALID,921.514,VALID,0,VALID,74.8543,VALID,208.543,VALID,24.6345,VALID,183,VALID,0,
2016-01-04, 09:42:04,VALID,921.505,VALID,0,VALID,74.6409,VALID,202.419,VALID,24.7126,VALID,184,VALID,0,
2016-01-04, 09:43:04,VALID,921.532,VALID,0,VALID,74.2749,VALID,198.981,VALID,24.7516,VALID,191,VALID,0,
2016-01-04, 09:44:04,VALID,921.525,VALID,0,VALID,73.6346,VALID,195.435,VALID,24.7711,VALID,201,VALID,0,
2016-01-04, 09:45:04,VALID,921.509,VALID,0,VALID,73.7794,VALID,192.32,VALID,24.7711,VALID,204,VALID,0,
2016-01-04, 09:46:04,VALID,921.512,VALID,0,VALID,75.4947,VALID,198.659,VALID,24.654,VALID,213,VALID,0,
2016-01-04, 09:47:04,VALID,921.504,VALID,0,VALID,76.5772,VALID,241.743,VALID,24.4783,VALID,241,VALID,0,
2016-01-04, 09:48:04,VALID,921.482,VALID,0,VALID,76.4934,VALID,309.645,VALID,24.4197,VALID,224,VALID,0,
2016-01-04, 09:49:04,VALID,921.47,VALID,0,VALID,75.5557,VALID,277.95,VALID,24.4392,VALID,247,VALID,0,
2016-01-04, 09:50:04,VALID,921.444,VALID,0,VALID,76.4781,VALID,251.412,VALID,24.4587,VALID,236,VALID,0,
2016-01-04, 09:51:04,VALID,921.413,VALID,0,VALID,75.9445,VALID,217.246,VALID,24.4002,VALID,239,VALID,0,
2016-01-04, 09:52:04,VALID,921.397,VALID,0,VALID,76.1274,VALID,210.907,VALID,24.4002,VALID,246,VALID,0,
2016-01-04, 09:53:04,VALID,921.391,VALID,0,VALID,75.3117,VALID,188.344,VALID,24.3221,VALID,254,VALID,0,
2016-01-04, 09:54:04,VALID,921.366,VALID,0,VALID,75.8682,VALID,177.17,VALID,24.3221,VALID,252,VALID,0,
2016-01-04, 09:55:04,VALID,921.368,VALID,0,VALID,77.1566,VALID,334.142,VALID,24.3221,VALID,252,VALID,0,
2016-01-04, 09:56:04,VALID,921.35,VALID,0,VALID,74.4655,VALID,669.788,VALID,24.3611,VALID,252,VALID,0,
2016-01-04, 09:57:04,VALID,921.355,VALID,0,VALID,74.1606,VALID,195.435,VALID,24.3007,VALID,252,VALID,0,
2016-01-04, 09:58:04,VALID,921.316,VALID,0,VALID,74.0157,VALID,175.559,VALID,24.3221,VALID,253,VALID,0,
2016-01-04, 09:59:04,VALID,921.369,VALID,0,VALID,74.3283,VALID,178.245,VALID,24.2421,VALID,254,VALID,0,
2016-01-04, 10:00:04,VALID,921.341,VALID,0,VALID,74.679,VALID,179.856,VALID,24.1854,VALID,254,VALID,0,
2016-01-04, 10:01:04,VALID,921.351,VALID,0,VALID,76.0817,VALID,168.897,VALID,24.1659,VALID,254,VALID,0,
2016-01-04, 10:02:04,VALID,921.325,VALID,0,VALID,75.8454,VALID,151.277,VALID,24.1659,VALID,255,VALID,0,
2016-01-04, 10:03:04,VALID,921.324,VALID,0,VALID,76.2951,VALID,147.302,VALID,24.244,VALID,279,VALID,0,
2016-01-04, 10:04:04,VALID,921.311,VALID,0,VALID,75.67,VALID,148.269,VALID,24.3044,VALID,296,VALID,0,
2016-01-04, 10:05:04,VALID,921.292,VALID,0,VALID,75.6777,VALID,144.938,VALID,24.3416,VALID,296,VALID,0,
2016-01-04, 10:06:04,VALID,921.276,VALID,0,VALID,77.0041,VALID,157.831,VALID,24.4801,VALID,296,VALID,0,
2016-01-04, 10:07:04,VALID,921.304,VALID,0,VALID,74.4198,VALID,179.427,VALID,24.5582,VALID,201,VALID,0,
2016-01-04, 10:08:04,VALID,921.304,VALID,0,VALID,73.7642,VALID,180.394,VALID,24.5973,VALID,199,VALID,0,
2016-01-04, 10:09:04,VALID,921.294,VALID,0,VALID,73.4745,VALID,185.121,VALID,24.6363,VALID,203,VALID,0,
2016-01-04, 10:10:04,VALID,921.262,VALID,0,VALID,73.7947,VALID,183.509,VALID,24.5954,VALID,200,VALID,0,
2016-01-04, 10:11:04,VALID,921.266,VALID,0,VALID,73.7184,VALID,188.989,VALID,24.6735,VALID,200,VALID,0,
2016-01-04, 10:12:04,VALID,921.276,VALID,0,VALID,74.1682,VALID,209.403,VALID,24.7926,VALID,199,VALID,0,
2016-01-04, 10:13:04,VALID,921.254,VALID,0,VALID,73.6651,VALID,242.065,VALID,24.9078,VALID,199,VALID,0,
2016-01-04, 10:14:04,VALID,921.218,VALID,0,VALID,74.2902,VALID,281.711,VALID,24.9878,VALID,199,VALID,0,
2016-01-04, 10:15:04,VALID,921.215,VALID,0,VALID,73.0399,VALID,317.166,VALID,25.0855,VALID,198,VALID,0,
2016-01-04, 10:16:04,VALID,921.196,VALID,0,VALID,72.1785,VALID,366.589,VALID,25.1441,VALID,198,VALID,0,
2016-01-04, 10:17:04,VALID,921.228,VALID,0,VALID,73.0704,VALID,529.47,VALID,25.2007,VALID,198,VALID,0,
2016-01-04, 10:18:04,VALID,921.171,VALID,0,VALID,70.0668,VALID,540.966,VALID,25.396,VALID,198,VALID,0,
2016-01-04, 10:19:04,VALID,921.174,VALID,0,VALID,70.2879,VALID,478.543,VALID,25.5327,VALID,191,VALID,0,
2016-01-04, 10:20:04,VALID,921.169,VALID,0,VALID,70.9206,VALID,359.928,VALID,25.6304,VALID,184,VALID,0,
2016-01-04, 10:21:04,VALID,921.186,VALID,0,VALID,70.2269,VALID,345.961,VALID,25.728,VALID,182,VALID,0,
2016-01-04, 10:22:04,VALID,921.163,VALID,0,VALID,70.1735,VALID,311.364,VALID,25.8433,VALID,182,VALID,0,
2016-01-04, 10:23:04,VALID,921.165,VALID,0,VALID,70.3717,VALID,303.091,VALID,25.9429,VALID,182,VALID,0,
2016-01-04, 10:24:04,VALID,921.146,VALID,0,VALID,69.4722,VALID,297.397,VALID,25.9038,VALID,267,VALID,0,
2016-01-04, 10:25:04,VALID,921.158,VALID,0,VALID,69.4569,VALID,283.537,VALID,25.8042,VALID,246,VALID,0,
2016-01-04, 10:26:04,VALID,921.168,VALID,0,VALID,69.3578,VALID,275.801,VALID,25.728,VALID,241,VALID,0,
2016-01-04, 10:27:04,VALID,921.132,VALID,0,VALID,69.922,VALID,276.446,VALID,25.687,VALID,218,VALID,0,
2016-01-04, 10:28:04,VALID,921.13,VALID,0,VALID,69.9143,VALID,272.471,VALID,25.7476,VALID,218,VALID,0,
2016-01-04, 10:29:04,VALID,921.078,VALID,0,VALID,70.1659,VALID,273.008,VALID,25.8452,VALID,219,VALID,0,
2016-01-04, 10:30:04,VALID,921.051,VALID,0,VALID,70.8368,VALID,284.074,VALID,25.9624,VALID,309,VALID,0,
2016-01-04, 10:31:04,VALID,921.037,VALID,0,VALID,70.4556,VALID,303.091,VALID,25.9624,VALID,1,VALID,0,
2016-01-04, 10:32:04,VALID,921.02,VALID,0,VALID,71.3475,VALID,320.712,VALID,25.9409,VALID,15,VALID,0,
2016-01-04, 10:33:04,VALID,921.013,VALID,0,VALID,71.4314,VALID,400.003,VALID,25.9624,VALID,16,VALID,0,
2016-01-04, 10:34:04,VALID,921.023,VALID,0,VALID,69.8,VALID,404.194,VALID,25.982,VALID,198,VALID,0,
2016-01-04, 10:35:04,VALID,921.015,VALID,0,VALID,68.4583,VALID,330.919,VALID,25.8823,VALID,215,VALID,0,
2016-01-04, 10:36:04,VALID,920.971,VALID,0,VALID,69.4493,VALID,312.117,VALID,25.8257,VALID,194,VALID,0,
2016-01-04, 10:37:04,VALID,920.984,VALID,0,VALID,69.7238,VALID,304.381,VALID,25.7671,VALID,215,VALID,0,
2016-01-04, 10:38:04,VALID,920.936,VALID,0,VALID,70.5623,VALID,292.885,VALID,25.6499,VALID,215,VALID,0,
2016-01-04, 10:39:04,VALID,920.948,VALID,0,VALID,72.7426,VALID,278.058,VALID,25.5113,VALID,215,VALID,0,
2016-01-04, 10:40:04,VALID,920.968,VALID,0,VALID,71.6067,VALID,281.066,VALID,25.5327,VALID,215,VALID,0,
2016-01-04, 10:41:04,VALID,920.97,VALID,0,VALID,70.0744,VALID,305.67,VALID,25.5327,VALID,210,VALID,0,
2016-01-04, 10:42:04,VALID,920.932,VALID,0,VALID,70.2498,VALID,379.697,VALID,25.4917,VALID,212,VALID,0,
2016-01-04, 10:43:04,VALID,920.938,VALID,0,VALID,70.1431,VALID,500.461,VALID,25.6109,VALID,212,VALID,0,
2016-01-04, 10:44:04,VALID,920.952,VALID,0,VALID,69.9906,VALID,636.589,VALID,25.8042,VALID,210,VALID,0,
2016-01-04, 10:45:04,VALID,920.95,VALID,0,VALID,68.9919,VALID,461.137,VALID,26.0015,VALID,205,VALID,0,
2016-01-04, 10:46:04,VALID,920.964,VALID,0,VALID,69.03,VALID,487.783,VALID,26.1773,VALID,203,VALID,0,
2016-01-04, 10:47:04,VALID,920.969,VALID,0,VALID,68.3439,VALID,488.427,VALID,26.2554,VALID,193,VALID,0,
2016-01-04, 10:48:04,VALID,920.964,VALID,0,VALID,68.4049,VALID,645.721,VALID,26.312,VALID,179,VALID,0,
2016-01-04, 10:49:04,VALID,920.962,VALID,0,VALID,69.3121,VALID,593.075,VALID,26.4117,VALID,211,VALID,0,
2016-01-04, 10:50:04,VALID,920.953,VALID,0,VALID,69.8839,VALID,550.421,VALID,26.5074,VALID,155,VALID,0,
2016-01-04, 10:51:04,VALID,920.938,VALID,0,VALID,67.3986,VALID,639.382,VALID,26.3511,VALID,113,VALID,0,
2016-01-04, 10:52:04,VALID,920.887,VALID,0,VALID,70.4556,VALID,500.031,VALID,26.4683,VALID,71,VALID,0.3375,
2016-01-04, 10:53:04,VALID,920.907,VALID,0,VALID,67.1089,VALID,607.902,VALID,26.4292,VALID,27,VALID,0,
2016-01-04, 10:54:04,VALID,920.897,VALID,0,VALID,67.0098,VALID,712.55,VALID,26.4272,VALID,25,VALID,0,
2016-01-04, 10:55:04,VALID,920.879,VALID,0,VALID,67.2766,VALID,457.377,VALID,26.566,VALID,26,VALID,0,
2016-01-04, 10:56:04,VALID,920.881,VALID,0,VALID,67.513,VALID,470.485,VALID,26.6441,VALID,25,VALID,0,
2016-01-04, 10:57:04,VALID,920.885,VALID,0,VALID,67.1623,VALID,534.735,VALID,26.7593,VALID,25,VALID,0,
2016-01-04, 10:58:04,VALID,920.872,VALID,0,VALID,67.5206,VALID,451.575,VALID,26.8395,VALID,229,VALID,0,
2016-01-04, 10:59:04,VALID,920.853,VALID,0,VALID,68.4278,VALID,388.507,VALID,26.7809,VALID,221,VALID,0,
2016-01-04, 11:00:04,VALID,920.86,VALID,0,VALID,69.3502,VALID,344.671,VALID,26.7223,VALID,287,VALID,0,
2016-01-04, 11:01:04,VALID,920.857,VALID,0,VALID,72.0718,VALID,308.678,VALID,26.6421,VALID,306,VALID,0,
2016-01-04, 11:02:04,VALID,920.791,VALID,0,VALID,67.147,VALID,276.446,VALID,26.6421,VALID,86,VALID,1.28203,
2016-01-04, 11:03:04,VALID,920.78,VALID,0,VALID,69.1444,VALID,230.998,VALID,26.3316,VALID,81,VALID,0,
2016-01-04, 11:04:04,VALID,920.753,VALID,0,VALID,69.8839,VALID,210.585,VALID,26.1948,VALID,62,VALID,0.125,
2016-01-04, 11:05:04,VALID,920.727,VALID,0,VALID,69.5027,VALID,209.725,VALID,26.0601,VALID,50,VALID,1.8957,
2016-01-04, 11:06:04,VALID,920.699,VALID,0,VALID,70.791,VALID,237.445,VALID,25.8042,VALID,38,VALID,1.14219,
2016-01-04, 11:07:04,VALID,920.651,VALID,0,VALID,71.0655,VALID,301.587,VALID,25.687,VALID,37,VALID,2.10859,
2016-01-04, 11:08:04,VALID,920.598,VALID,0,VALID,69.0377,VALID,350.473,VALID,25.6304,VALID,33,VALID,3.91484,
2016-01-04, 11:09:04,VALID,920.648,VALID,0,VALID,69.5256,VALID,395.061,VALID,25.5523,VALID,56,VALID,1.14961,
2016-01-04, 11:10:04,VALID,920.64,VALID,0,VALID,72.4529,VALID,455.336,VALID,25.6499,VALID,18,VALID,0.418359,
2016-01-04, 11:11:04,VALID,920.589,VALID,0,VALID,68.2677,VALID,508.304,VALID,25.8237,VALID,18,VALID,0.0195313,
2016-01-04, 11:12:04,VALID,920.566,VALID,0,VALID,69.3502,VALID,530.007,VALID,25.9019,VALID,359,VALID,0,
2016-01-04, 11:13:04,VALID,920.589,VALID,0,VALID,69.213,VALID,460.17,VALID,26.0601,VALID,9,VALID,0,
2016-01-04, 11:14:04,VALID,920.579,VALID,0,VALID,67.7722,VALID,431.269,VALID,26.0386,VALID,310,VALID,0.230078,
2016-01-04, 11:15:04,VALID,920.56,VALID,0,VALID,68.6107,VALID,329.522,VALID,26.0601,VALID,264,VALID,0,
2016-01-04, 11:16:04,VALID,920.554,VALID,0,VALID,68.9919,VALID,297.397,VALID,26.1362,VALID,333,VALID,0,
2016-01-04, 11:17:04,VALID,920.539,VALID,0,VALID,67.4901,VALID,279.669,VALID,26.2534,VALID,325,VALID,0,
2016-01-04, 11:18:04,VALID,920.503,VALID,0,VALID,68.2296,VALID,271.396,VALID,26.4097,VALID,325,VALID,0,
2016-01-04, 11:19:04,VALID,920.47,VALID,0,VALID,67.4139,VALID,286.331,VALID,26.4488,VALID,326,VALID,0,
2016-01-04, 11:20:04,VALID,920.461,VALID,0,VALID,66.5982,VALID,243.569,VALID,26.3531,VALID,2,VALID,1.25,
2016-01-04, 11:21:04,VALID,920.456,VALID,0,VALID,69.1139,VALID,209.94,VALID,26.1753,VALID,21,VALID,0,
2016-01-04, 11:22:04,VALID,920.447,VALID,0,VALID,69.678,VALID,198.551,VALID,26.0601,VALID,6,VALID,0,
2016-01-04, 11:23:04,VALID,920.428,VALID,0,VALID,70.2269,VALID,200.055,VALID,25.9604,VALID,343,VALID,0,
2016-01-04, 11:24:04,VALID,920.429,VALID,0,VALID,70.6919,VALID,216.601,VALID,25.9409,VALID,344,VALID,0,
2016-01-04, 11:25:04,VALID,920.376,VALID,0,VALID,69.6094,VALID,240.024,VALID,25.8433,VALID,350,VALID,0,
2016-01-04, 11:26:04,VALID,920.37,VALID,0,VALID,69.2969,VALID,253.454,VALID,25.8237,VALID,1,VALID,0,
2016-01-04, 11:27:04,VALID,920.349,VALID,0,VALID,70.7987,VALID,272.578,VALID,25.8648,VALID,9,VALID,0,
2016-01-04, 11:28:04,VALID,920.323,VALID,0,VALID,68.6336,VALID,312.654,VALID,25.8433,VALID,351,VALID,0,
2016-01-04, 11:29:04,VALID,920.301,VALID,0,VALID,70.8596,VALID,349.828,VALID,25.8628,VALID,39,VALID,0,
2016-01-04, 11:30:04,VALID,920.256,VALID,0,VALID,69.3426,VALID,388.4,VALID,25.9604,VALID,22,VALID,0,
2016-01-04, 11:31:04,VALID,920.246,VALID,0,VALID,70.9511,VALID,513.891,VALID,25.9429,VALID,5,VALID,0,
2016-01-04, 11:32:04,VALID,920.183,VALID,0,VALID,70.2422,VALID,414.938,VALID,26.0386,VALID,2,VALID,0.767187,
2016-01-04, 11:33:04,VALID,920.197,VALID,0,VALID,70.6538,VALID,412.574,VALID,26.0386,VALID,28,VALID,0,
2016-01-04, 11:34:04,VALID,920.18,VALID,0,VALID,70.0973,VALID,477.039,VALID,26.0581,VALID,38,VALID,1.4,
2016-01-04, 11:35:04,VALID,920.152,VALID,0,VALID,69.4798,VALID,1104.92,VALID,25.9995,VALID,42,VALID,1.80898,
2016-01-04, 11:36:04,VALID,920.188,VALID,0,VALID,70.974,VALID,563.959,VALID,25.9604,VALID,43,VALID,0.791797,
2016-01-04, 11:37:04,VALID,920.187,VALID,0,VALID,67.917,VALID,539.892,VALID,26.0776,VALID,339,VALID,0,
2016-01-04, 11:38:04,VALID,920.138,VALID,0,VALID,69.7238,VALID,501.858,VALID,26.1948,VALID,8,VALID,0.4625,
2016-01-04, 11:39:04,VALID,920.187,VALID,0,VALID,69.9525,VALID,430.517,VALID,26.2144,VALID,39,VALID,0.595312,
2016-01-04, 11:40:04,VALID,920.199,VALID,0,VALID,71.2179,VALID,434.814,VALID,26.314,VALID,18,VALID,0.0914062,
2016-01-04, 11:41:04,VALID,920.197,VALID,0,VALID,70.1049,VALID,487.89,VALID,26.4683,VALID,4,VALID,0,
2016-01-04, 11:42:04,VALID,920.168,VALID,0,VALID,67.7264,VALID,514.536,VALID,26.5289,VALID,32,VALID,0.592578,
2016-01-04, 11:43:04,VALID,920.187,VALID,0,VALID,67.7036,VALID,451.79,VALID,26.4683,VALID,31,VALID,0,
2016-01-04, 11:44:04,VALID,920.212,VALID,0,VALID,68.4354,VALID,472.634,VALID,26.3511,VALID,31,VALID,0,
2016-01-04, 11:45:04,VALID,920.186,VALID,0,VALID,68.9233,VALID,469.948,VALID,26.275,VALID,81,VALID,0,
2016-01-04, 11:46:04,VALID,920.177,VALID,0,VALID,68.4583,VALID,508.841,VALID,26.273,VALID,81,VALID,0,
2016-01-04, 11:47:04,VALID,920.156,VALID,0,VALID,67.6731,VALID,801.081,VALID,26.4292,VALID,61,VALID,0,
2016-01-04, 11:48:04,VALID,920.129,VALID,0,VALID,68.6794,VALID,1126.74,VALID,26.5855,VALID,37,VALID,0.808984,
2016-01-04, 11:49:04,VALID,920.127,VALID,0,VALID,66.1331,VALID,506.37,VALID,26.5855,VALID,90,VALID,0.690234,
2016-01-04, 11:50:04,VALID,920.104,VALID,0,VALID,67.0479,VALID,477.576,VALID,26.31,VALID,115,VALID,0.503125,
2016-01-04, 11:51:04,VALID,920.066,VALID,0,VALID,66.6058,VALID,520.123,VALID,26.31,VALID,67,VALID,1.26641,
2016-01-04, 11:52:04,VALID,920.101,VALID,0,VALID,65.4318,VALID,446.418,VALID,26.3686,VALID,47,VALID,1.59023,